Flag for Estonia Weather past 2 weeks in Kohtla-Järve, Estonia

Now
28 °F

Passing clouds.


Feels Like: 23 °F
Forecast: 23 / 28 °F
Wind: 5 mph from Northeast

Location: Johvi

Current Time: Oct 22, 2014 at 7:32:52 PM

Latest Report: Oct 22, 2014 at 6:00 PM


Visibility: 31 mi

Pressure: 30.26 "Hg

Humidity: 66%

Dew point: 18 °F

Location of Kohtla-JärveLocation

Historic Weather in Kohtla-Järve — Graph

°F

Kohtla-Järve temperature yesterday

Maximum temperature yesterday: 39 °F (at 12:00 AM)
Minimum temperature yesterday: 31 °F (at 7:00 PM)
Average temperature yesterday: 35 °F

Past Weeks' High & Low Weather Summary

 TemperatureHumidityPressure
High57 °F (Oct 10, 3:00 PM)100% (Oct 10, 8:00 AM)30.47 "Hg (Oct 10, 8:00 AM)
Low21 °F (Oct 18, 10:00 PM)59% (Oct 16, 8:00 PM)29.29 "Hg (Oct 20, 8:00 AM)
Average42 °F87%29.93 "Hg
* Reported Oct 7 6:00 PM — Oct 22 6:00 PM, Kohtla-Järve, Weather by CustomWeather, © 2014

Note: Actual official high and low records may vary slightly from our data, if they occured in-between our weather recording intervals... More about our weather records

Advertising

Kohtla-Järve weather history for previous 24 hours

 ConditionsComfort  
Time TempWeatherWind HumidityBarometerVisibility
6:00 PM
Oct 22
28 °FPassing clouds.5 mph66%30.26 "Hg31 mi
5:00 PM29 °FPartly sunny.3 mph64%30.24 "Hg28 mi
4:00 PM30 °FOvercast.3 mph62%30.24 "Hg31 mi
3:00 PM30 °FPartly sunny.5 mph61%30.22 "Hg22 mi
2:00 PM31 °FSunny.5 mph59%30.20 "Hg22 mi
1:00 PM30 °FSunny.6 mph59%30.18 "Hg22 mi
12:00 PM28 °FPassing clouds.5 mph64%30.18 "Hg22 mi
11:00 AM27 °FSunny.6 mph68%30.17 "Hg28 mi
10:00 AM26 °FSunny.6 mph69%30.15 "Hg25 mi
9:00 AM26 °FSunny.5 mph76%30.13 "Hg31 mi
8:00 AM26 °FClear.5 mph76%30.11 "Hg31 mi
7:00 AM27 °FPassing clouds.5 mph72%30.08 "Hg31 mi
6:00 AM30 °FOvercast.5 mph71%30.05 "Hg31 mi
5:00 AM30 °FOvercast.3 mph71%30.03 "Hg31 mi
4:00 AM30 °FOvercast.3 mph73%30.01 "Hg31 mi
3:00 AM30 °FOvercast.5 mph82%29.99 "Hg22 mi
2:00 AM31 °FOvercast.5 mph80%29.97 "Hg31 mi
1:00 AM31 °FOvercast.3 mph81%29.96 "Hg31 mi
12:00 AM32 °FOvercast.3 mph79%29.94 "Hg31 mi
11:00 PM
Oct 21
32 °FOvercast.5 mph78%29.93 "Hg31 mi
10:00 PM32 °FOvercast.3 mph74%29.92 "Hg31 mi
9:00 PM32 °FOvercast.3 mph75%29.91 "Hg31 mi
8:00 PM32 °FOvercast.2 mph79%29.89 "Hg31 mi
7:00 PM31 °FOvercast.5 mph81%29.88 "Hg31 mi
Weather by CustomWeather, © 2014

See weather overviewHow to use our weather pages